This demonstration page uses our WeatherBlox Daily Observations layout. Learn more.

Left ArrowRight Arrow

Hourly Observations for December 18, 2021

Temp ( °F °C ) Dew Point ( °F °C ) Humidity (%) Winds ( mph kmh ) Pressure ( in mb ) Visibility ( mi km ) Precip ( " mm )
6:30 am 06:30 Cloudy with Light Rain 41 5 39 4 93 93 SE 3 6 29.92 1013 3 5 N/A
6:45 am 06:45 Cloudy with Light Rain 41 5 41 5 100 100 SE 3 6 29.91 1013 3 4 N/A
7:10 am 07:10 Cloudy with Light Rain 43 6 41 5 93 93 Calm 29.91 1013 3 5 N/A
7:45 am 07:45 Cloudy with Light Rain 43 6 41 5 93 93 S 6 9 29.90 1013 3 4 N/A
8:05 am 08:05 Cloudy with Light Rain 45 7 43 6 93 93 S 6 9 29.90 1012 5 8 N/A
8:45 am 08:45 Cloudy with Light Rain 45 7 43 6 93 93 SW 5 7 29.91 1013 5 8 N/A
9:45 am 09:45 Cloudy with Light Rain 45 7 45 7 100 100 WNW 3 6 29.93 1013 5 8 N/A
9:55 am 09:55 Cloudy with Light Rain 45 7 45 7 100 100 NNW 7 11 29.94 1014 2 3 N/A
10:35 am 10:35 Cloudy 46 8 46 8 100 100 WSW 3 6 29.92 1013 10 16 N/A
10:45 am 10:45 Cloudy 46 8 46 8 100 100 WSW 3 6 29.92 1013 10 16 N/A
11:45 am 11:45 Cloudy 48 9 46 8 94 94 WNW 13 20 29.92 1013 10 16 N/A
12:45 pm 12:45 Cloudy 43 6 41 5 93 93 NW 16 26 29.94 1014 10 16 N/A
1:45 pm 13:45 Cloudy 41 5 37 3 87 87 WNW 14 22 29.97 1015 10 16 N/A
2:45 pm 14:45 Cloudy 39 4 37 3 93 93 NW 16 26 30.00 1016 10 16 N/A
3:45 pm 15:45 Cloudy 39 4 36 2 87 87 NW 17 28 30.04 1017 10 16 N/A
4:45 pm 16:45 Cloudy 37 3 34 1 87 87 NW 17 28 30.09 1019 10 16 N/A
5:45 pm 17:45 Cloudy 37 3 32 0 81 81 NNW 14 22 30.11 1020 10 16 N/A
6:45 pm 18:45 Cloudy 37 3 32 0 81 81 NNW 14 22 30.16 1021 10 16 N/A
7:45 pm 19:45 Partly Cloudy 36 2 30 -1 81 81 N 12 19 30.19 1022 10 16 N/A
8:48 pm 20:48 Partly Cloudy 34 1 30 -1 87 87 N 8 13 30.22 1023 10 16 N/A
9:45 pm 21:45 Partly Cloudy 36 2 30 -1 81 81 N 12 19 30.22 1023 10 16 N/A

Powered by AerisWeather